WetterOnline ( https://www.wetteronline.de )

Wetter aktuell Ostalb (in 700m)

Aktuelles Wetter: Geislingen/Stötten (737m)

6-stündlich | Neueste Meldungen
Ortszeit Temperatur Wetter
Di, 29.11. 19:00 3.6° C leichter Regen
Di, 29.11. 13:00 4.5° C leichter Regen
Di, 29.11. 7:00 4.1° C leichter Regen
Di, 29.11. 1:00 3.4° C leichter Regen
Mo, 28.11. 19:00 2.9° C bedeckt
Mo, 28.11. 13:00 6.4° C bedeckt
Mo, 28.11. 7:00 0.0° C bedeckt
Mo, 28.11. 1:00 -0.9° C Nebel
Ortszeit Temperatur Wetter
Di, 29.11. 21:30 3.3° C bedeckt
Di, 29.11. 21:20 3.3° C bedeckt
Di, 29.11. 21:10 3.3° C bewölkt
Di, 29.11. 21:00 3.2° C Regen
Di, 29.11. 20:50 3.2° C Dunst
Di, 29.11. 20:40 3.3° C Sprühregen
Di, 29.11. 20:30 3.3° C leichter Regen
Di, 29.11. 20:00 3.5° C leichter Regen
Di, 29.11. 19:30 3.6° C leichter Regen
Di, 29.11. 19:00 3.6° C leichter Regen
Di, 29.11. 18:30 3.7° C leichter Regen
Ortszeit Relative Feuchte Sichtweite
Di, 29.11. 19:00 100% 4.2 km
Di, 29.11. 13:00 100% 100 m
Di, 29.11. 7:00 100% 100 m
Di, 29.11. 1:00 99% 4.6 km
Mo, 28.11. 19:00 95% 7 km
Mo, 28.11. 13:00 71% 50 km
Mo, 28.11. 7:00 96% 26 km
Mo, 28.11. 1:00 100% 2.8 km
Ortszeit Relative Feuchte Sichtweite
Di, 29.11. 21:30 100% 9 km
Di, 29.11. 21:20 100% -
Di, 29.11. 21:10 100% -
Di, 29.11. 21:00 100% 7 km
Di, 29.11. 20:50 100% -
Di, 29.11. 20:40 100% -
Di, 29.11. 20:30 100% 4.6 km
Di, 29.11. 20:00 100% 5.0 km
Di, 29.11. 19:30 100% 0.5 km
Di, 29.11. 19:00 100% 4.2 km
Di, 29.11. 18:30 100% 3.4 km
Ortszeit Niederschlagsmenge Niederschlagsart
Di, 29.11. 19:00 5 l/m2 in 12 Std. Regen
Di, 29.11. 13:00 2 l/m2 in 6 Std. Regen
Di, 29.11. 7:00 3 l/m2 in 12 Std. Regen
Di, 29.11. 1:00 0.2 l/m2 in 6 Std. Regen
Mo, 28.11. 19:00 0.1 l/m2 in 12 Std. Regen
Mo, 28.11. 13:00 0.0 l/m2 in 6 Std. -
Mo, 28.11. 7:00 0.0 l/m2 in 12 Std. -
Mo, 28.11. 1:00 0.0 l/m2 in 6 Std. -
Ortszeit Niederschlagsmenge Niederschlagsart
Di, 29.11. 21:30 <0.05 l/m2 in 1 Std. Schneeregen
Di, 29.11. 21:20 keine Meldung -
Di, 29.11. 21:10 keine Meldung -
Di, 29.11. 21:00 <0.05 l/m2 in 1 Std. Regen
Di, 29.11. 20:50 keine Meldung -
Di, 29.11. 20:40 keine Meldung -
Di, 29.11. 20:30 <0.05 l/m2 in 1 Std. -
Di, 29.11. 20:00 0.2 l/m2 in 1 Std. Regen
Di, 29.11. 19:30 0.1 l/m2 in 1 Std. -
Di, 29.11. 19:00 0.4 l/m2 in 1 Std. Regen
Di, 29.11. 18:30 0.2 l/m2 in 1 Std. -
Ortszeit Stärke Spitze Richtung
km/h Bft. km/h Grad Sektor
Di, 29.11. 19:00 7 2 18 10° N
Di, 29.11. 13:00 9 2 22 290° W
Di, 29.11. 7:00 13 3 22 280° W
Di, 29.11. 1:00 7 2 22 180° S
Mo, 28.11. 19:00 9 2 19 170° S
Mo, 28.11. 13:00 7 2 22 210° SW
Mo, 28.11. 7:00 15 3 28 160° S
Mo, 28.11. 1:00 13 3 30 130° SO
Ortszeit Stärke Spitze Richtung
km/h Bft. km/h Grad Sektor
Di, 29.11. 21:30 6 1 9 40° NO
Di, 29.11. 21:20 6 1 - 40° NO
Di, 29.11. 21:10 7 2 - 20° N
Di, 29.11. 21:00 7 2 11 30° NO
Di, 29.11. 20:50 7 2 - 30° NO
Di, 29.11. 20:40 7 2 - 20° N
Di, 29.11. 20:30 7 2 11 60° NO
Di, 29.11. 20:00 9 2 13 30° NO
Di, 29.11. 19:30 6 1 9 30° NO
Di, 29.11. 19:00 7 2 14 10° N
Di, 29.11. 18:30 9 2 13 350° N
Ortszeit Untergrenze Bedeckung Gattung
total tief tief mittel hoch
Di, 29.11. 19:00 60 m 8/8 8/8 - - -
Di, 29.11. 13:00 <30 m 8/8 0/8 - - -
Di, 29.11. 7:00 <30 m 8/8 0/8 - - -
Di, 29.11. 1:00 180 m 8/8 8/8 - - -
Mo, 28.11. 19:00 1260 m 8/8 8/8 - - -
Mo, 28.11. 13:00 - 8/8 - - - -
Mo, 28.11. 7:00 3300 m 8/8 8/8 - - -
Mo, 28.11. 1:00 <30 m 7/8 0/8 - - -
Ortszeit Bedeckungsgrad in Achtel und Wolkenuntergrenze
Di, 29.11. 21:30 8(90m)
Di, 29.11. 21:20 8(90m)
Di, 29.11. 21:10 7
Di, 29.11. 21:00 6(30m) 7(240m)
Di, 29.11. 20:50 6(30m) 7(240m)
Di, 29.11. 20:40 7
Di, 29.11. 20:30 7(30m) 7(420m)
Di, 29.11. 20:00 7(30m)
Di, 29.11. 19:30 8(30m)
Di, 29.11. 19:00 7(60m) 8(270m)
Di, 29.11. 18:30 2(90m) 7(390m)
Ortszeit Luftdruck NN (hPa) Tendenz (hPa in 3 Std.)
Di, 29.11. 19:00 1020 + 1,1
Di, 29.11. 13:00 1017 + 0,5
Di, 29.11. 7:00 1016 + 0,8
Di, 29.11. 1:00 1015 - 0,1
Mo, 28.11. 19:00 1015 0,0
Mo, 28.11. 13:00 1014 - 0,1
Mo, 28.11. 7:00 1017 - 0,7
Mo, 28.11. 1:00 1019 - 1,3
Ortszeit Luftdruck NN (hPa) Tendenz (hPa in 3 Std.)
Di, 29.11. 21:30 1020 + 0,7
Di, 29.11. 21:20 1020 keine Meldung
Di, 29.11. 21:10 1020 keine Meldung
Di, 29.11. 21:00 1020 + 0,7
Di, 29.11. 20:50 1020 keine Meldung
Di, 29.11. 20:40 1020 keine Meldung
Di, 29.11. 20:30 1020 + 0,8
Di, 29.11. 20:00 1020 + 0,8
Di, 29.11. 19:30 1020 + 0,9
Di, 29.11. 19:00 1020 + 1,1
Di, 29.11. 18:30 1019 + 0,9
Ortszeit Schneehöhe (cm)
Di, 29.11. 19:00 0
Di, 29.11. 13:00 0
Di, 29.11. 7:00 0
Di, 29.11. 1:00 0
Mo, 28.11. 19:00 0
Mo, 28.11. 13:00 0
Mo, 28.11. 7:00 0
Mo, 28.11. 1:00 0
Ortszeit Schneehöhe (cm)
Di, 29.11. 21:30 0
Di, 29.11. 21:20 0
Di, 29.11. 21:10 0
Di, 29.11. 21:00 0
Di, 29.11. 20:50 0
Di, 29.11. 20:40 0
Di, 29.11. 20:30 0
Di, 29.11. 20:00 0
Di, 29.11. 19:30 0
Di, 29.11. 19:00 0
Di, 29.11. 18:30 0
Link zu dieser Seite / Seite empfehlen

Das Wetter in ...